Change the Weather History Date:

Friday, November 29, 2013

  Actual Average (KCBM) Record (KCBM)
Temperature  
Mean Temperature 42 °F -  
Max Temperature 60 °F 59 °F 73 °F (1998)
Min Temperature 23 °F 39 °F 20 °F (2013)
Degree Days  
Heating Degree Days 24    
Moisture  
Dew Point 24 °F    
Average Humidity 57    
Maximum Humidity 65    
Minimum Humidity 52    
Precipitation  
Precipitation 0.00 in - - ()
Sea Level Pressure  
Sea Level Pressure 30.52 in    
Wind  
Wind Speed 0 mph (NNW)    
Max Wind Speed 6 mph    
Max Gust Speed -    
Visibility 6 miles    
Events      
Averages and records for this station are not official NWS values.
T = Trace of Precipitation, MM = Missing Value Source: NWS Daily Summary

Daily Weather History Graph

Daily Weather History Graph

Search for Another Location

Airport or City:

Trip Planner

Search our weather history database for the weather conditions in past years. The results will help you decide how hot, cold, wet, or windy it might be!

Date:

Astronomy

Nov. 29, 2013 Rise Set
Actual Time 6:39 AM CST 4:45 PM CST
Civil Twilight 6:12 AM CST 5:12 PM CST
Nautical Twilight 5:41 AM CST 5:43 PM CST
Astronomical Twilight 5:11 AM CST 6:13 PM CST
Moon 2:53 AM CST (11/29) 2:21 PM CST (11/29)
Length of Visible Light 11h 00m
Length of Day
10h 05m
Waning Crescent, 14% of the Moon is Illuminated
Nov 29
Waning Crescent
Dec 2
New
Dec 9
First Quarter
Dec 17
Full
Dec 25
Last Quarter

Hourly Weather History & Observations

Time (CST) Temp. Windchill Dew Point Humidity Pressure Visibility Wind Dir Wind Speed Gust Speed Precip Events Conditions
12:15 AM 26.6 °F - 12.2 °F 55% 30.52 in 5.0 mi Calm Calm - N/A   Haze
12:35 AM 26.6 °F - 12.2 °F 55% 30.52 in 5.0 mi Calm Calm - N/A   Haze
12:55 AM 26.6 °F - 12.2 °F 55% 30.52 in 5.0 mi Calm Calm - N/A   Haze
1:15 AM 26.6 °F - 12.2 °F 55% 30.53 in 5.0 mi Calm Calm - N/A   Haze
1:35 AM 23.0 °F - 10.4 °F 59% 30.53 in 5.0 mi Calm Calm - N/A   Haze
1:55 AM 24.8 °F - 10.4 °F 54% 30.53 in 6.0 mi Calm Calm - N/A   Haze
2:15 AM 24.8 °F - 10.4 °F 54% 30.53 in 6.0 mi Calm Calm - N/A   Haze
2:35 AM 24.8 °F - 10.4 °F 54% 30.53 in 6.0 mi Calm Calm - N/A   Haze
2:55 AM 24.8 °F - 10.4 °F 54% 30.54 in 7.0 mi Calm Calm - N/A   Clear
3:15 AM 23.0 °F - 10.4 °F 59% 30.54 in 5.0 mi Calm Calm - N/A   Haze
3:35 AM 23.0 °F - 10.4 °F 59% 30.53 in 6.0 mi Calm Calm - N/A   Haze
3:55 AM 23.0 °F - 10.4 °F 59% 30.53 in 7.0 mi Calm Calm - N/A   Clear
4:15 AM 23.0 °F - 10.4 °F 59% 30.53 in 6.0 mi Calm Calm - N/A   Haze
4:35 AM 23.0 °F - 10.4 °F 59% 30.53 in 6.0 mi Calm Calm - N/A   Haze
4:55 AM 23.0 °F - 10.4 °F 59% 30.54 in 5.0 mi Calm Calm - N/A   Haze
5:15 AM 23.0 °F - 10.4 °F 59% 30.54 in 6.0 mi Calm Calm - N/A   Haze
5:35 AM 23.0 °F - 10.4 °F 59% 30.55 in 7.0 mi Calm Calm - N/A   Clear
5:55 AM 23.0 °F - 10.4 °F 59% 30.55 in 6.0 mi Calm Calm - N/A   Haze
6:15 AM 23.0 °F - 10.4 °F 59% 30.56 in 7.0 mi Calm Calm - N/A   Clear
6:35 AM 23.0 °F - 10.4 °F 59% 30.57 in 6.0 mi Calm Calm - N/A   Haze
6:55 AM 23.0 °F - 8.6 °F 54% 30.58 in 5.0 mi Calm Calm - N/A   Haze
7:15 AM 23.0 °F - 10.4 °F 59% 30.58 in 5.0 mi Calm Calm - N/A   Haze
7:35 AM 26.6 °F - 12.2 °F 55% 30.59 in 5.0 mi Calm Calm - N/A   Haze
7:55 AM 30.2 °F - 15.8 °F 55% 30.58 in 6.0 mi Calm Calm - N/A   Haze
8:15 AM 32.0 °F 28.7 °F 17.6 °F 55% 30.58 in 5.0 mi North 3.5 mph - N/A   Haze
8:35 AM 32.0 °F - 19.4 °F 60% 30.59 in 5.0 mi Calm Calm - N/A   Haze
8:55 AM 35.6 °F - 23.0 °F 60% 30.59 in 5.0 mi Calm Calm - N/A   Haze
9:15 AM 39.2 °F - 26.6 °F 61% 30.59 in 5.0 mi Calm Calm - N/A   Haze
9:35 AM 42.8 °F - 28.4 °F 57% 30.59 in 5.0 mi Calm Calm - N/A   Haze
9:55 AM 44.6 °F - 32.0 °F 61% 30.58 in 5.0 mi Calm Calm - N/A   Haze
10:15 AM 48.2 °F - 33.8 °F 58% 30.58 in 5.0 mi Calm Calm - N/A   Haze
10:35 AM 51.8 °F - 35.6 °F 54% 30.57 in 5.0 mi Calm Calm - N/A   Haze
10:55 AM 53.6 °F - 37.4 °F 54% 30.57 in 5.0 mi NE 3.5 mph - N/A   Haze
11:15 AM 53.6 °F - 39.2 °F 58% 30.56 in 5.0 mi Calm Calm - N/A   Haze
11:35 AM 55.4 °F - 39.2 °F 54% 30.54 in 5.0 mi Calm Calm - N/A   Haze
11:55 AM 57.2 °F - 41.0 °F 55% 30.54 in 5.0 mi NNW 3.5 mph - N/A   Haze
12:15 PM 57.2 °F - 42.8 °F 59% 30.53 in 5.0 mi Calm Calm - N/A   Haze
12:35 PM 59.0 °F - 42.8 °F 55% 30.52 in 5.0 mi Calm Calm - N/A   Haze
12:55 PM 60.8 °F - 42.8 °F 52% 30.52 in 5.0 mi North 3.5 mph - N/A   Haze
1:15 PM 60.8 °F - 44.6 °F 55% 30.51 in 5.0 mi Calm Calm - N/A   Haze
1:35 PM 60.8 °F - 44.6 °F 55% 30.50 in 5.0 mi WNW 3.5 mph - N/A   Haze
1:55 PM 60.8 °F - 44.6 °F 55% 30.50 in 5.0 mi NNE 3.5 mph - N/A   Haze
2:15 PM 60.8 °F - 44.6 °F 55% 30.49 in 5.0 mi North 3.5 mph - N/A   Haze
2:35 PM 60.8 °F - 44.6 °F 55% 30.48 in 7.0 mi NW 3.5 mph - N/A   Clear
2:55 PM 60.8 °F - 44.6 °F 55% 30.48 in 6.0 mi NNW 5.8 mph - N/A   Haze
3:15 PM 60.8 °F - 44.6 °F 55% 30.48 in 5.0 mi NNW 3.5 mph - N/A   Haze
3:35 PM 60.8 °F - 44.6 °F 55% 30.48 in 5.0 mi North 5.8 mph - N/A   Haze
3:55 PM 59.0 °F - 42.8 °F 55% 30.48 in 6.0 mi NNW 3.5 mph - N/A   Haze
4:15 PM 57.2 °F - 42.8 °F 59% 30.48 in 5.0 mi Calm Calm - N/A   Haze
4:35 PM 55.4 °F - 39.2 °F 54% 30.48 in 5.0 mi Calm Calm - N/A   Haze
4:55 PM 48.2 °F - 33.8 °F 58% 30.48 in 5.0 mi Calm Calm - N/A   Haze
5:15 PM 44.6 °F - 32.0 °F 61% 30.48 in 7.0 mi Calm Calm - N/A   Clear
5:35 PM 42.8 °F - 28.4 °F 57% 30.48 in 7.0 mi Calm Calm - N/A   Clear
5:55 PM 39.2 °F - 26.6 °F 61% 30.48 in 7.0 mi Calm Calm - N/A   Clear
6:15 PM 37.4 °F - 26.6 °F 65% 30.48 in 7.0 mi Calm Calm - N/A   Clear
6:35 PM 37.4 °F - 23.0 °F 56% 30.48 in 7.0 mi Calm Calm - N/A   Clear
6:55 PM 35.6 °F - 23.0 °F 60% 30.48 in 7.0 mi Calm Calm - N/A   Clear
7:15 PM 35.6 °F - 21.2 °F 56% 30.47 in 7.0 mi Calm Calm - N/A   Clear
7:35 PM 33.8 °F - 21.2 °F 60% 30.47 in 7.0 mi Calm Calm - N/A   Clear
7:55 PM 33.8 °F - 21.2 °F 60% 30.47 in 7.0 mi Calm Calm - N/A   Clear
8:15 PM 32.0 °F - 19.4 °F 60% 30.46 in 7.0 mi Calm Calm - N/A   Clear
8:35 PM 32.0 °F - 19.4 °F 60% 30.46 in 7.0 mi Calm Calm - N/A   Clear
8:55 PM 32.0 °F - 19.4 °F 60% 30.47 in 7.0 mi Calm Calm - N/A   Clear
9:15 PM 32.0 °F - 19.4 °F 60% 30.48 in 7.0 mi Calm Calm - N/A   Clear
9:35 PM 32.0 °F - 17.6 °F 55% 30.48 in 6.0 mi Calm Calm - N/A   Haze
9:55 PM 32.0 °F - 17.6 °F 55% 30.48 in 6.0 mi Calm Calm - N/A   Haze
10:15 PM 32.0 °F - 17.6 °F 55% 30.48 in 6.0 mi Calm Calm - N/A   Haze
10:35 PM 30.2 °F - 17.6 °F 60% 30.47 in 6.0 mi Calm Calm - N/A   Haze
10:55 PM 30.2 °F - 17.6 °F 60% 30.48 in 5.0 mi Calm Calm - N/A   Haze
11:15 PM 30.2 °F - 17.6 °F 60% 30.47 in 5.0 mi Calm Calm - N/A   Haze
11:35 PM 30.2 °F - 15.8 °F 55% 30.47 in 5.0 mi Calm Calm - N/A   Haze
11:55 PM 30.2 °F - 15.8 °F 55% 30.47 in 5.0 mi Calm Calm - N/A   Haze